Welcome to the New NWS' Forecast!
Most changes are behind the scenes, but click here for differences you might notice.
Latest weather observations around

Prattville - Grouby Field (K1A9)

Using International System of Units (Switch to English Units)
Date/ Time (CDT) Wind (kph) Vis. (km) Weather Sky Cond. Temp (°C) Rel. Humidity Wind Chill (°C) Heat Index (°C) Pressure Precip. (cm)
Air Dwpt 6 hour Altimeter (hPa) Sea level (hPa) 1 hr 3 hr 6 hr
Max Min
Aug 18 09:55 WSW 8 16.09 Cloudy BKN012 OVC085 27 25     90%   30 1018.6        
Aug 18 09:35 WSW 8 16.09 Cloudy BKN008 OVC013 26 25     94%   28 1019        
Notice The following observation data may not be complete
Aug 18 07:35   11.27 Cloudy OVC010          %              
Aug 18 06:55 Calm 16.09 Cloudy OVC010 23 23     100%   23 1019.3        
Aug 18 05:35 Calm 16.09 Mostly Cloudy SCT010 BKN025 22 22     100%   23 1019        
Aug 18 04:15 Calm 16.09 Partly Cloudy SCT002 22 22     100%   22 1019        
Aug 18 02:55 Calm 16.09 Clear CLR 22 22     100%   22 1019        
Aug 18 01:35 Calm 16.09 Clear CLR 22 22     100%   23 1019.7        
Aug 18 01:15 Calm 16.09 Clear CLR 22 22     100%   23 1019.7        
Aug 18 00:35 Calm 16.09 Clear CLR 23 23     100%   23 1019.7        
Notice The following observation data may not be complete
Aug 17 23:35   16.09 Clear CLR          %              
Aug 17 21:55 Calm 16.09 Clear CLR 23 23     100%   23 1020        
Aug 17 20:35 Calm 16.09 Clear CLR 24 24     100%   25 1019.7        
Aug 17 17:55 Calm 8.05 Rain SCT041 SCT049 BKN090 25 25     99%   26 1018.3   0    
Notice The following observation data may not be complete
Aug 17 15:15 SSW 5 16.09 Light Rain SCT034 BKN048 OVC065   25      %     1019   0    
Notice The following observation data may not be complete
Aug 17 14:55 NW 9 4.02 Heavy Rain SCT045 OVC065   24      %     1018.6   1    
Notice The following observation data may not be complete
Aug 17 14:35 W 5 16.09 Cloudy SCT021 BKN041 OVC065   24      %     1019   1    
Notice The following observation data may not be complete
Aug 17 14:15 NNE 15 2.82 Heavy Rain SCT016 SCT024 OVC037   24      %     1019.3   1    
Aug 17 13:55 W 13 16.09 Cloudy BKN035 OVC045 28 25     86%   32 1019.3        
Notice The following observation data may not be complete
Aug 17 13:35   16.09 Mostly Cloudy BKN035 BKN045 BKN055          %              
Aug 17 13:15 E 5 16.09 Mostly Cloudy SCT030 SCT037 BKN090 30 25     74%   37 1019.3        
Aug 17 12:55 NE 5 16.09 Cloudy SCT033 BKN039 OVC090 28 25     87%   33 1019.7       1
Aug 17 12:35 Calm 11.27 Rain SCT026 BKN033 OVC049 28 26     89%   32 1020        
Aug 17 12:15 Calm 16.09 Light Rain BKN027 BKN032 OVC080 28 26     87%   33 1020        
Aug 17 11:55 Calm 16.09 Light Rain SCT017 BKN028 OVC080 28 25     81%   33 1020.3   0    
Aug 17 11:35 Calm 16.09 Cloudy SCT017 BKN024 OVC030 28 25     83%   34 1020.7        
Aug 17 11:15 Calm 16.09 Cloudy SCT026 BKN038 OVC085 27 25     86%   31 1021        
Aug 17 10:55 Calm 16.09 Partly Cloudy SCT039 SCT060 SCT100 27 26     94%   30 1021   1    
Notice The following observation data may not be complete
Aug 17 10:35 Calm 16.09 Mostly Cloudy SCT016 BKN027 BKN070   24      %     1021.3   1    
Aug 17 10:15 SSE 21 11.27 Heavy Rain BKN016 BKN028 OVC033 27 24     85%   30 1021.7   0    
Aug 17 09:55 Calm 16.09 Mostly Cloudy BKN016 BKN029 27 25     85%   31 1021.7        
Aug 17 09:35 Calm 16.09 Partly Cloudy SCT010 SCT014 SCT032 27 25     85%   31 1021.7        
Aug 17 09:15 SSE 5 16.09 Mostly Cloudy BKN008 BKN032 BKN041 26 25     91%   28 1021.3        
Aug 17 08:55 Calm 16.09 Cloudy OVC006 25 24     96%   26 1021.3        
Aug 17 08:35 Calm 16.09 Cloudy OVC004 24 24     99%   25 1021.7        
Aug 17 08:15 S 5 16.09 Cloudy OVC004 24 24     100%   25 1021.7        
Aug 17 07:55 S 5 16.09 Cloudy OVC004 24 24     100%   25 1021.3        
Aug 17 07:35 Calm 11.27 Cloudy OVC004 23 23     100%   24 1021.3        
Aug 17 07:15 Calm 11.27 Cloudy OVC004 23 23     100%   24 1021.3        
Aug 17 06:55 Calm 16.09 Cloudy OVC004 23 23     100%   24 1021.7        
Aug 17 06:35 Calm 16.09 Cloudy BKN004 BKN008 OVC070 23 23     100%   24 1021.3        
Aug 17 06:15 Calm 16.09 Cloudy SCT008 OVC070 23 23     100%   23 1021.3        
Aug 17 05:55 Calm 16.09 Cloudy OVC060 23 23     100%   23 1021        
Aug 17 05:35 Calm 16.09 Mostly Cloudy BKN060 23 23     100%   24 1021.3        
Aug 17 05:15 Calm 16.09 Partly Cloudy SCT060 23 23     100%   23 1021.3        
Aug 17 04:55 Calm 16.09 Partly Cloudy SCT060 23 23     100%   24 1021.3        
Aug 17 04:35 Calm 16.09 Cloudy SCT025 OVC060 23 23     100%   24 1021        
Aug 17 04:15 Calm 16.09 Cloudy SCT007 SCT024 OVC060 23 23     100%   24 1020.7        
Aug 17 03:55 Calm 16.09 Cloudy BKN007 BKN024 OVC050 23 23     100%   24 1020.3        
Aug 17 03:35 Calm 16.09 Cloudy BKN035 OVC050 23 23     100%   24 1020.3        
Aug 17 03:15 Calm 16.09 Cloudy SCT029 OVC037 23 23     100%   24 1020.3        
Aug 17 02:55 Calm 16.09 Cloudy SCT023 BKN029 OVC037 23 23     100%   24 1020.3        
Aug 17 02:35 Calm 16.09 Mostly Cloudy BKN023 23 23     100%   24 1020.3        
Aug 17 02:15 Calm 16.09 Clear CLR 23 23     100%   24 1020.3        
Aug 17 01:55 Calm 16.09 Clear CLR 23 23     100%   24 1020.7        
Aug 17 01:35 Calm 16.09 Clear CLR 23 23     100%   24 1020.7        
Aug 17 01:15 Calm 16.09 Clear CLR 23 23     100%   24 1020.7        
Aug 17 00:55 Calm 16.09 Clear CLR 23 23     100%   24 1020.7        
Aug 17 00:35 Calm 16.09 Clear CLR 23 23     100%   23 1020.7        
Aug 17 00:15 Calm 16.09 Clear CLR 23 23     100%   24 1020.3        
Aug 16 23:55 Calm 16.09 Clear CLR 23 23     100%   24 1020.7        
Aug 16 23:35 Calm 16.09 Clear CLR 23 23     99%   24 1021        
Aug 16 23:15 Calm 16.09 Clear CLR 23 23     100%   24 1021.3        
Aug 16 22:55 Calm 16.09 Clear CLR 23 23     100%   24 1021        
Aug 16 22:35 Calm 16.09 Clear CLR 24 23     98%   24 1021.3        
Aug 16 22:15 Calm 16.09 Clear CLR 24 23     95%   25 1021.3        
Aug 16 21:55 Calm 16.09 Clear CLR 24 23     95%   25 1021        
Aug 16 21:35 Calm 16.09 Clear CLR 24 23     95%   25 1020.7        
Aug 16 21:15 Calm 16.09 Clear CLR 24 23     93%   25 1020.7        
Aug 16 20:55 SE 5 16.09 Clear CLR 24 23     94%   25 1020.3        
Aug 16 20:35 Calm 16.09 Clear CLR 25 23     91%   26 1020.7        
Aug 16 20:15 Calm 16.09 Clear CLR 25 23     89%   26 1020.3        
Aug 16 19:55 Calm 16.09 Clear CLR 25 23     87%   26 1020        
Aug 16 19:35 Calm 16.09 Clear CLR 26 23     84%   28 1020        
Aug 16 19:15 SSW 5 16.09 Partly Cloudy SCT025 27 23     80%   29 1019.7        
Aug 16 18:55 S 8 16.09 Mostly Cloudy BKN025 BKN032 28 24     80%   31 1019.7        
Aug 16 18:35 SSW 11 16.09 Partly Cloudy SCT025 SCT032 28 23     75%   32 1019.3        
Aug 16 18:15 S 8 16.09 Clear CLR 29 23     72%   33 1019.3        
Aug 16 17:55 SSE 9 16.09 Clear CLR 29 23     71%   33 1019.3        
Aug 16 17:35 SSE 13 16.09 Partly Cloudy SCT027 29 24     73%   33 1019.3        
Aug 16 17:15 S 11 16.09 Partly Cloudy SCT027 29 24     72%   33 1019.3        
Aug 16 16:55 SSE 11 16.09 Partly Cloudy SCT027 30 23     69%   34 1019.3        
Aug 16 16:35 SSE 13 16.09 Partly Cloudy SCT027 30 24     70%   36 1019.3        
Aug 16 16:15 S 11 16.09 Partly Cloudy SCT027 30 24     70%   36 1019.3        
Aug 16 15:55 SSE 9 16.09 Partly Cloudy SCT045 SCT075 30 24     72%   35 1019.3        
Aug 16 15:35 S 18 16.09 Partly Cloudy SCT042 SCT055 SCT070 29 24     73%   33 1019        
Aug 16 15:15 SSE 17 16.09 Partly Cloudy SCT040 SCT049 31 24     68%   36 1019        
Aug 16 14:55 SE 11 16.09 Clear CLR 32 23     58%   37 1019        
Aug 16 14:35 SE 5 16.09 Clear CLR 32 23     59%   37 1019        
Aug 16 14:15 Calm 16.09 Partly Cloudy SCT039 SCT046 32 23     60%   37 1019.3        
Aug 16 13:55 Calm 16.09 Partly Cloudy SCT039 SCT046 31 23     60%   36 1019.3        
Aug 16 13:35 Calm 16.09 Clear CLR 32 23     60%   36 1019.7        
Aug 16 13:15 Calm 16.09 Clear CLR 31 23     60%   36 1019.7        
Aug 16 12:55 Calm 16.09 Partly Cloudy SCT049 SCT060 SCT070 31 23     62%   35 1020        
Aug 16 12:35 Calm 16.09 Cloudy SCT035 BKN050 OVC070 30 23     64%   34 1020.3        
Aug 16 12:15 WNW 5 16.09 Mostly Cloudy BKN037 BKN044 BKN050 31 23     65%   35 1020.3        
Aug 16 11:55 ENE 5 16.09 Partly Cloudy SCT040 SCT049 31 23     63%   35 1020.3        
Aug 16 11:35 Calm 16.09 Partly Cloudy SCT029 30 23     66%   34 1020.3        
Aug 16 11:15 SSE 8 16.09 Mostly Cloudy BKN027 BKN038 BKN047 29 23     71%   34 1020.7        
Aug 16 10:55 SE 8 16.09 Partly Cloudy SCT027 SCT032 SCT040 30 24     69%   34 1020.7        
Aug 16 10:35 Calm 16.09 Partly Cloudy SCT021 SCT027 29 24     72%   34 1021        
Aug 16 10:15 Calm 16.09 Mostly Cloudy SCT015 BKN021 BKN027 29 24     78%   33 1021        
Aug 16 09:55 Calm 16.09 Partly Cloudy SCT013 28 25     83%   33 1021        
Aug 16 09:35 Calm 16.09 Partly Cloudy SCT011 27 25     87%   32 1020.7        
Aug 16 09:15 Calm 16.09 Mostly Cloudy BKN007 BKN012 26 25     90%   29 1021        
Aug 16 08:55 Calm 16.09 Mostly Cloudy BKN007 26 25     93%   28 1021        
Aug 16 08:35 Calm 16.09 Mostly Cloudy BKN005 25 24     96%   26 1021        
Aug 16 08:15 Calm 16.09 Partly Cloudy SCT005 25 24     98%   26 1021        
Aug 16 07:55 Calm 16.09 Partly Cloudy SCT005 24 24     99%   25 1021        
Aug 16 07:35 Calm 11.27 Mostly Cloudy BKN005 23 23     100%   24 1020.7        
Aug 16 07:15 Calm 16.09 Mostly Cloudy BKN005 22 22     100%   23 1020.3        
Aug 16 06:55 Calm 16.09 Cloudy OVC005 22 22     100%   23 1020.3        
Aug 16 06:35 Calm 11.27 Cloudy OVC007 22 22     100%   22 1020        
Aug 16 06:15 Calm 8.05 Fog/Mist BKN007 21 21     100%     1019.7        
Aug 16 05:55 Calm 16.09 Partly Cloudy SCT007 21 21     100%   22 1019.7        
Aug 16 05:35 Calm 16.09 Partly Cloudy SCT016 21 21     100%   22 1019.3        
Aug 16 05:15 Calm 16.09 Partly Cloudy SCT016 21 21     100%   22 1019.3        
Aug 16 04:55 Calm 16.09 Clear CLR 21 21     100%   22 1019        
Aug 16 04:35 Calm 11.27 Clear CLR 21 21     100%   22 1019        
Aug 16 04:15 Calm 11.27 Clear CLR 22 22     100%   22 1018.6        
Aug 16 03:55 Calm 16.09 Clear CLR 22 22     100%   22 1018.6        
Aug 16 03:35 Calm 16.09 Clear CLR 22 22     100%   22 1018.3        
Aug 16 03:15 Calm 16.09 Clear CLR 22 22     100%   22 1018.6        
Aug 16 02:55 Calm 16.09 Clear CLR 22 22     100%   23 1018.3        
Aug 16 02:35 Calm 16.09 Clear CLR 22 22     100%   23 1018.3        
Aug 16 02:15 Calm 11.27 Clear CLR 22 22     100%   23 1018.3        
Aug 16 01:55 Calm 16.09 Clear CLR 22 22     100%   23 1018.3        
Aug 16 01:35 Calm 16.09 Clear CLR 22 22     100%   23 1018.3        
Aug 16 01:15 Calm 16.09 Clear CLR 22 22     100%   23 1018.3        
Aug 16 00:55 Calm 16.09 Clear CLR 22 22     100%   23 1018.3        
Aug 16 00:35 Calm 16.09 Clear CLR 23 23     100%   23 1018.6        
Aug 16 00:15 Calm 16.09 Clear CLR 23 22     99%   23 1018.6        
Aug 16 00:00 Calm 16.09 Clear CLR 23 23     100%   23 1018.6        
Aug 15 23:35 Calm 16.09 Clear CLR 23 23     99%   24 1018.3        
Aug 15 23:15 Calm 16.09 Clear CLR 23 23     96%   24 1018.3        
Aug 15 22:55 Calm 16.09 Clear CLR 23 23     97%   24 1018.6        
Aug 15 22:35 Calm 16.09 Clear CLR 24 22     88%   25 1018.6        
Aug 15 22:15 Calm 16.09 Clear CLR 24 22     91%   25 1018.6        
Aug 15 21:55 Calm 16.09 Clear CLR 24 22     88%   25 1018.6        
Aug 15 21:35 Calm 16.09 Clear CLR 25 22     84%   26 1018.3        
Aug 15 21:15 Calm 16.09 Clear CLR 26 22     79%   26 1018        
Aug 15 20:55 Calm 16.09 Clear CLR 26 21     76%   27 1018        
Aug 15 20:35 SSW 9 16.09 Partly Cloudy SCT050 SCT060 27 21     72%   28 1017.6        
Aug 15 20:15 S 15 16.09 Mostly Cloudy BKN050 27 23     77%   30 1017.3        
Aug 15 19:55 Calm 8.05 Fog/Mist SCT055 27 26     96%   30 1017.3        
Aug 15 19:35 Calm 16.09 Clear CLR 28 26     89%   33 1017.3        
Aug 15 19:15 Calm 16.09 Clear CLR 28 25     85%   33 1016.6        
Aug 15 18:55 Calm 16.09 Clear CLR 30 25     77%   36 1016.6        
Aug 15 18:35 Calm 16.09 Clear CLR 32 24     64%   37 1016.6        
Aug 15 18:15 Calm 16.09 Clear CLR 32 22     54%   36 1016.3        
Aug 15 17:55 Calm 16.09 Clear CLR 32 23     56%   37 1016.3        
Aug 15 17:35 Calm 16.09 Clear CLR 33 22     53%   37 1016.6        
Aug 15 17:15 Calm 16.09 Clear CLR 33 22     52%   36 1016.6        
Aug 15 16:55 Calm 16.09 Clear CLR 33 22     53%   37 1016.9        
Aug 15 16:35 Calm 16.09 Clear CLR 33 22     52%   37 1016.9        
Aug 15 16:15 SE 8 16.09 Clear CLR 33 22     52%   37 1016.9        
Aug 15 15:55 SSE 8 16.09 Clear CLR 33 22     53%   37 1016.9        
Aug 15 15:35 E 5 16.09 Clear CLR 33 22     52%   37 1016.9        
Aug 15 15:15 SE 5 16.09 Clear CLR 33 22     55%   37 1016.9        
Aug 15 14:55 SE 5 16.09 Partly Cloudy SCT040 33 23     56%   38 1017.3        
Aug 15 14:35 S 5 16.09 Partly Cloudy SCT040 32 23     59%   37 1017.3        
Aug 15 14:15 Calm 16.09 Clear CLR 32 22     57%   36 1017.6        
Aug 15 13:55 S 8 16.09 Partly Cloudy SCT038 32 24     61%   37 1018        
Aug 15 13:35 Calm 16.09 Clear CLR 31 23     63%   36 1018        
Aug 15 13:15 SSE 5 16.09 Clear CLR 31 24     65%   36 1018.3        
Aug 15 12:55 S 5 16.09 Clear CLR 31 23     64%   35 1018.3        
Aug 15 12:35 Calm 16.09 Clear CLR 31 23     64%   35 1018.6        
Aug 15 12:15 Calm 16.09 Clear CLR 30 22     63%   33 1018.6        
Aug 15 11:55 Calm 16.09 Clear CLR 30 23     66%   34 1018.6        
Aug 15 11:35 E 5 11.27 Clear CLR 30 24     72%   34 1018.6        
Aug 15 11:15 Calm 16.09 Clear CLR 29 24     76%   33 1019        
Aug 15 10:55 Calm 16.09 Clear CLR 28 23     78%   31 1019        
Aug 15 10:35 Calm 16.09 Clear CLR 27 24     87%   29 1019        
Aug 15 10:15 Calm 16.09 Clear CLR 25 24     92%   26 1019        
Aug 15 09:55 Calm 16.09 Partly Cloudy SCT004 25 24     98%   26 1018.6        
Aug 15 09:35 Calm 11.27 Partly Cloudy SCT004 24 24     100%   25 1018.6        
Aug 15 09:15 Calm 4.83 Fog/Mist BKN002 23 23     100%   24 1018.6        
Aug 15 08:55 Calm 2.01 Fog/Mist OVC002 23 23     100%   23 1018.6        
Aug 15 08:35 Calm 0.4 Fog OVC002 22 22     100%   23 1018.6        
Aug 15 08:15 Calm 0.4 Fog OVC002 22 22     100%   23 1018.6        
Aug 15 07:55 Calm 0.4 Fog OVC002 22 22     100%   22 1018.3        
Aug 15 07:35 Calm 0.4 Fog OVC002 21 21     100%     1018.3        
Aug 15 07:15 Calm 0.4 Fog OVC002 21 21     100%     1018        
Aug 15 06:55 Calm 0.4 Fog OVC002 21 21     100%     1018        
Aug 15 06:35 Calm 0.8 Fog OVC002 21 21     100%     1018        
Aug 15 06:15 Calm 0.4 Fog OVC002 21 21     100%     1017.6        
Aug 15 05:55 Calm 0.4 Fog OVC002 21 21     100%     1017.6        
Aug 15 05:35 Calm 0.4 Fog OVC002 21 21     100%     1017.3        
Aug 15 05:15 Calm 0.8 Fog OVC002 21 21     100%     1017.3        
Aug 15 04:55 Calm 0.8 Fog OVC002 21 21     100%     1017.3        
Aug 15 04:35 Calm 3.22 Fog/Mist OVC002 21 21     100%     1016.9        
Aug 15 04:15 Calm 0.8 Fog OVC002 21 21     100%     1016.9        
Aug 15 03:55 Calm 0.8 Fog OVC002 21 21     100%     1016.9        
Aug 15 03:35 Calm 1.21 Fog/Mist OVC002 21 21     100%   22 1016.9        
Aug 15 03:15 Calm 0.8 Fog OVC002 22 22     100%   23 1016.9        
Aug 15 02:55 Calm 0.4 Fog OVC002 22 22     100%   23 1016.9        
Aug 15 02:35 Calm 0.4 Fog OVC002 22 22     100%   23 1016.9        
Aug 15 02:15 Calm 0.4 Fog OVC002 21 21     100%   22 1017.3        
Aug 15 01:55 Calm 0.8 Fog OVC002 22 22     100%   22 1016.9        
Aug 15 01:35 Calm 4.83 Fog/Mist OVC002 21 21     100%     1016.9        
Aug 15 01:15 Calm 16.09 Mostly Cloudy BKN002 BKN006 21 21     100%     1016.9        
Aug 15 00:55 Calm 11.27 Mostly Cloudy BKN004 21 21     100%     1017.3        
Aug 15 00:35 Calm 11.27 Partly Cloudy SCT006 21 21     100%     1017.3        
Aug 15 00:15 Calm 16.09 Clear CLR 21 21     100%   22 1017.6        
Aug 14 23:55 Calm 16.09 Clear CLR 21 21     100%   22 1017.6        
Aug 14 23:35 Calm 16.09 Clear CLR 21 21     100%     1017.6        
Aug 14 23:15 Calm 11.27 Clear CLR 21 21     100%   22 1017.6        
Aug 14 22:55 Calm 11.27 Clear CLR 22 22     100%   22 1017.6        
Aug 14 22:35 Calm 16.09 Clear CLR 22 22     100%   22 1017.3        
May 15 12:15 ESE 9 16.09 Mostly Cloudy BKN039 BKN046 29 19     54%   30 1014.6        
May 15 11:15 ESE 13 16.09 Partly Cloudy SCT035 SCT120 28 19     59%   29 1015.2        
May 15 03:55 Calm 16.09 Clear CLR 19 18     98%     1014.6        
May 15 02:15 Calm 16.09 Clear CLR 19 19     99%     1013.9        
Notice The following observation data may not be complete
May 14 14:35   16.09 Partly Cloudy SCT080          %              
May 14 06:55 Calm 16.09 Clear CLR 17 17     98%     1016.6        
May 13 19:15 Calm 16.09 Clear CLR 27 18     59%   28 1015.9        
May 13 13:55 NW 8 16.09 Clear CLR 33 14     33%   32 1018.3        
May 13 07:55 Calm 16.09 Clear CLR 22 15     67%   22 1020        
Notice The following observation data may not be complete
May 13 06:55 Calm 16.09 Clear CLR   16      %     1019.7        
May 12 15:35 NE 5 16.09 Clear CLR 33 13     30%   32 1018.6        
May 12 13:15 Calm 16.09 Clear CLR 31 11     28%   30 1020        
May 12 08:55 Calm 16.09 Clear CLR 24 16     62%   24 1021.7        
May 12 03:35 Calm 16.09 Clear CLR 15 15     98%     1019        
May 12 02:55 Calm 16.09 Clear   15 15     99%     1018.6        
May 12 00:35 Calm 16.09 Clear CLR 17 16     93%     1019        
Notice The following observation data may not be complete
May 11 21:35 Calm 16.09 Clear CLR   18      %     1018.6        
Notice The following observation data may not be complete
May 11 20:55 Calm 16.09 Clear CLR   19      %     1018.3        
May 11 15:15 S 5 16.09 Clear CLR 31 14     37%   31 1018        
May 11 10:55 W 5 16.09 Clear CLR 28 18     55%   29 1021        
Jun 12 07:15 ENE 5 16.09 Partly Cloudy SCT011 SCT019 23 22     95%   24 1020.7        
Jun 12 04:55 Calm 16.09 Clear CLR 21 21     100%     1019.7        
Notice The following observation data may not be complete
Jun 12 03:35   16.09 Clear CLR          %              
Jun 12 02:55 Calm 16.09 Clear CLR 22 22     100%   22 1019.7        
Jun 12 02:35 Calm 16.09 Partly Cloudy SCT080 22 22     100%   23 1019.7        
Jun 11 22:55 Calm 16.09 Partly Cloudy SCT100 24 23     92%   25 1020.3        
Notice The following observation data may not be complete
Jun 11 22:15   16.09 Clear CLR          %              
Jun 11 18:15 Calm 16.09 Clear CLR 27 22     75%   29 1018        
Jun 11 14:35 E 17 16.09 Partly Cloudy SCT050 SCT065 32 21     52%   35 1019        
Jun 11 11:55 SE 15 16.09 Partly Cloudy SCT038 30 21     59%   33 1020.3        
Jun 11 02:35 Calm 16.09 Partly Cloudy SCT055 SCT065 19 18     97%     1018        
Jun 10 18:35 SE 8 16.09 Partly Cloudy SCT080 29 18     51%   30 1016.3        
Jun 10 12:55 SSE 9 16.09 Partly Cloudy SCT055 SCT075 28 16     47%   29 1018.3        
Jun 10 11:15 S 8 16.09 Clear CLR 29 17     48%   29 1018.6        
Jun 10 08:15 Calm 16.09 Clear CLR 24 20     81%   24 1018        
Jun 10 03:55 Calm 16.09 Mostly Cloudy SCT065 BKN075 19 18     96%     1015.6        
Notice The following observation data may not be complete
Jun 09 22:35   16.09 Mostly Cloudy BKN060 BKN075          %              
Jun 09 16:55 Calm 16.09 Partly Cloudy SCT075 29 15     43%   29 1012.9        
Jun 09 06:15 Calm 16.09 Clear CLR 16 16     100%     1013.6        
Notice The following observation data may not be complete
Jun 09 02:35   16.09 Clear CLR          %              
Jun 08 13:55 Calm 16.09 Mostly Cloudy SCT060 SCT070 BKN080 26 15     50%   26 1011.9        
Jun 08 07:55 Calm 16.09 Partly Cloudy SCT002 21 16     75%     1012.5        
Jun 08 07:15 Calm 16.09 Clear CLR 18 15     82%     1012.5        
Jun 08 03:15 Calm 16.09 Mostly Cloudy BKN060 18 14     76%     1010.2        
Jun 07 22:35 N 5 16.09 Cloudy SCT060 OVC090 22 16     72%   22 1010.8        
Jun 07 15:15 Calm 16.09 Cloudy BKN039 BKN044 OVC085 27 20     68%   29 1007.8        
Jun 07 14:55 E 21 16.09 Mostly Cloudy SCT037 BKN043 BKN048 28 21     65%   30 1007.8        
Jun 07 10:55 ENE 15 16.09 Clear   26 20     67%   27 1008.1        
Jun 07 07:35 NNE 5 16.09 Clear CLR 21 19     89%     1008.1        
Notice The following observation data may not be complete
Jun 06 08:35   16.09 Cloudy OVC006          %              
Notice The following observation data may not be complete
Jun 06 06:35   16.09 Cloudy SCT006 BKN024 OVC110          %              
Jun 05 15:15 S 8 16.09 Partly Cloudy SCT033 SCT060 SCT100 24 22     90%   25 1008.8        
Jun 05 14:35 S 8 16.09 Light Rain BKN100 BKN120 24 22     89%   25 1009.5